Simultaneous Nadir Overpasses (SNOs) Predictions

Prediction of SNOs between LANDSAT-8 and METOP-B Satellite Orbit:

Table of predicted SNOs for the next 14.0 days since TLE Epoch: 8/5/2023
Index Date (LANDSAT-8) Time (LANDSAT-8) Lat,Lon (LANDSAT-8) SZA (LANDSAT-8 ) Date (METOP-B) Time (METOP-B) Lat,Lon (METOP-B) SZA (METOP-B ) Distance(km) Time Diff (sec)
1 08/05/2023 15:45:38 81.20, -15.18 66.37 08/05/2023 15:44:42 81.21, -15.09 66.37 1.80 56
2 08/05/2023 16:35:04 -81.22, 152.75 113.58 08/05/2023 16:35:22 -81.21, 152.56 113.59 3.29 18
3 08/08/2023 11:19:53 81.20, 51.32 67.17 08/08/2023 11:19:03 81.21, 51.47 67.17 2.70 50
4 08/08/2023 12:09:18 -81.22,-140.72 112.78 08/08/2023 12:09:42 -81.22,-140.86 112.78 2.47 24
5 08/11/2023 06:54:06 81.22, 118.00 68.03 08/11/2023 06:53:23 81.21, 117.95 68.00 0.81 43
6 08/11/2023 07:43:32 -81.24, -74.02 111.92 08/11/2023 07:44:02 -81.23, -73.98 111.90 0.74 30
7 08/14/2023 02:28:20 81.22,-175.54 68.89 08/14/2023 02:27:44 81.21,-175.65 68.86 1.95 36
8 08/14/2023 03:17:46 -81.24, -7.52 111.05 08/14/2023 03:18:23 -81.23, -7.56 111.04 0.79 37
9 08/16/2023 22:02:34 81.21,-109.27 69.75 08/16/2023 22:02:05 81.21,-109.33 69.73 1.03 29



Historial Predications of SNOs between LANDSAT-8 and METOP-B
